Terminal Aerodrome Forecast
Issued by NWS

Home | Current Version | Previous Version | Text Only | Print | Product List | Glossary On
Versions: 1 2 3 4 5 6 7 8 9 10 11 12 13 14 15 16 17 18 19 20 21 22 23 24 25 26 27 28
000
FTUS45 KGJT 232211 AAA
TAFMTJ
TAF AMD
KMTJ 232211Z 2322/2418 23015G25KT P6SM VCTS SCT100CB BKN140
      TEMPO 2322/2401 VRB20G30KT -TSRA FEW050 BKN070CB OVC120
     FM240100 17010G20KT P6SM VCTS SCT100CB BKN150
     FM240400 15008KT P6SM VCSH SCT100 BKN200=

USA.gov is the U.S. government's official web portal to all federal, state and local government web resources and services.